| time (UTC) | temp F | wind direction | speed knots | gust knots | rain 1hr in | rain 24hr in | rain mn in | humidity % | barometer mb |
| 20260504081510 | 42 | 311 | 0.0 | 0.0 | 0.00 | 0.00 | 0.00 | 92 | 1018.2 |
| 20260504044600 | 47 | 311 | 0.0 | 0.0 | 0.00 | 0.00 | 0.00 | 88 | 1018.9 |
| 20260504043054 | 47 | 311 | 0.0 | 0.0 | 0.00 | 0.00 | 0.00 | 88 | 1018.8 |
| 20260504041551 | 48 | 311 | 0.0 | 0.0 | 0.00 | 0.00 | 0.00 | 87 | 1018.9 |
| 20260504040057 | 48 | 311 | 0.0 | 0.0 | 0.00 | 0.00 | 0.00 | 86 | 1018.9 |
| 20260504034621 | 49 | 311 | 0.0 | 0.0 | 0.00 | 0.00 | 0.00 | 85 | 1019.0 |
| 20260504033049 | 49 | 311 | 0.0 | 0.0 | 0.00 | 0.00 | 0.00 | 83 | 1019.0 |
| 20260504031546 | 50 | 311 | 0.0 | 0.0 | 0.00 | 0.00 | 0.00 | 83 | 1019.0 |
| 20260504030047 | 51 | 311 | 0.0 | 0.0 | 0.00 | 0.00 | 0.00 | 81 | 1019.0 |
| 20260504024545 | 51 | 311 | 0.0 | 0.0 | 0.00 | 0.00 | 0.00 | 80 | 1019.0 |
| 20260504023042 | 52 | 311 | 0.0 | 0.0 | 0.00 | 0.00 | 0.00 | 78 | 1018.8 |
| 20260504021540 | 53 | 311 | 0.0 | 0.0 | 0.00 | 0.00 | 0.00 | 76 | 1018.7 |
| 20260504020038 | 54 | 311 | 0.0 | 0.0 | 0.00 | 0.00 | 0.00 | 71 | 1018.4 |
| 20260504014542 | 55 | 311 | 0.0 | 0.0 | 0.00 | 0.00 | 0.00 | 70 | 1018.2 |
| 20260504013050 | 56 | 311 | 0.0 | 0.0 | 0.00 | 0.00 | 0.00 | 70 | 1018.0 |
| 20260504011538 | 57 | 311 | 0.0 | 0.0 | 0.00 | 0.00 | 0.00 | 63 | 1017.9 |
| 20260504010039 | 58 | 311 | 0.0 | 0.0 | 0.00 | 0.00 | 0.00 | 62 | 1017.9 |
| 20260504004535 | 60 | 311 | 0.0 | 0.0 | 0.00 | 0.00 | 0.00 | 58 | 1017.8 |
| 20260504003039 | 61 | 311 | 0.0 | 0.0 | 0.00 | 0.00 | 0.00 | 54 | 1017.4 |
| 20260504001540 | 62 | 311 | 0.0 | 0.0 | 0.00 | 0.00 | 0.00 | 51 | 1017.4 |
| 20260504000042 | 63 | 311 | 0.0 | 0.0 | 0.00 | 0.00 | 0.00 | 49 | 1017.4 |
| 20260503234538 | 64 | 311 | 0.0 | 0.9 | 0.00 | 0.00 | 0.00 | 46 | 1017.3 |
| 20260503233045 | 65 | 242 | 0.0 | 0.9 | 0.00 | 0.00 | 0.00 | 47 | 1017.4 |
| 20260503231537 | 66 | 242 | 0.0 | 1.7 | 0.00 | 0.00 | 0.00 | 45 | 1017.4 |
| 20260503230036 | 66 | 341 | 0.0 | 0.9 | 0.00 | 0.00 | 0.00 | 46 | 1017.5 |
| 20260503224536 | 67 | 223 | 0.0 | 1.7 | 0.00 | 0.00 | 0.00 | 41 | 1017.6 |
| 20260503223039 | 67 | 40 | 0.0 | 1.7 | 0.00 | 0.00 | 0.00 | 40 | 1017.5 |
| 20260503221538 | 67 | 16 | 0.0 | 2.6 | 0.00 | 0.00 | 0.00 | 39 | 1017.6 |
| 20260503220037 | 67 | 277 | 0.0 | 2.6 | 0.00 | 0.00 | 0.00 | 40 | 1017.6 |
| 20260503214536 | 67 | 227 | 0.0 | 2.6 | 0.00 | 0.00 | 0.00 | 41 | 1017.7 |
| 20260503213036 | 67 | 21 | 0.0 | 2.6 | 0.00 | 0.00 | 0.00 | 42 | 1017.8 |
| 20260503211535 | 68 | 256 | 0.0 | 1.7 | 0.00 | 0.00 | 0.00 | 42 | 1017.9 |
| 20260503210035 | 67 | 229 | 0.9 | 3.5 | 0.00 | 0.00 | 0.00 | 41 | 1018.0 |
| 20260503204534 | 67 | 252 | 0.0 | 1.7 | 0.00 | 0.00 | 0.00 | 41 | 1018.2 |
| 20260503203039 | 67 | 281 | 0.0 | 1.7 | 0.00 | 0.00 | 0.00 | 44 | 1018.3 |
| 20260503201532 | 67 | 265 | 0.9 | 2.6 | 0.00 | 0.00 | 0.00 | 42 | 1018.6 |
| 20260503200031 | 67 | 13 | 0.0 | 2.6 | 0.00 | 0.00 | 0.00 | 40 | 1018.9 |
| 20260503194533 | 67 | 242 | 0.0 | 3.5 | 0.00 | 0.00 | 0.00 | 42 | 1019.2 |
| 20260503193029 | 66 | 5 | 0.0 | 1.7 | 0.00 | 0.00 | 0.00 | 43 | 1019.5 |
| 20260503191535 | 66 | 248 | 1.7 | 3.5 | 0.00 | 0.00 | 0.00 | 42 | 1019.7 |
| 20260503190029 | 65 | 210 | 0.0 | 2.6 | 0.00 | 0.00 | 0.00 | 45 | 1019.9 |
| 20260503184523 | 65 | 207 | 0.9 | 2.6 | 0.00 | 0.00 | 0.00 | 44 | 1020.0 |
| 20260503183025 | 64 | 19 | 0.0 | 3.5 | 0.00 | 0.00 | 0.00 | 44 | 1020.3 |
| 20260503181524 | 64 | 21 | 0.0 | 1.7 | 0.00 | 0.00 | 0.00 | 45 | 1020.3 |
| 20260503180031 | 63 | 26 | 0.9 | 3.5 | 0.00 | 0.00 | 0.00 | 47 | 1020.2 |
| 20260503174520 | 63 | 242 | 0.0 | 2.6 | 0.00 | 0.00 | 0.00 | 44 | 1020.4 |
| 20260503173018 | 63 | 179 | 0.9 | 3.5 | 0.00 | 0.00 | 0.00 | 47 | 1020.7 |
| 20260503171516 | 63 | 270 | 0.0 | 1.7 | 0.00 | 0.00 | 0.00 | 49 | 1020.8 |